Marrakech, Morocco

7:55 AM WET on May 28, 2017 (GMT +0000)
Marrakech

Weather History for GMMX - October, 2011

Change the Weather History Date:

Sunday, October 16, 2011

  Actual Average Record
Temperature  
Mean Temperature 78 °F -  
Max Temperature 95 °F 75 °F 95 °F (2011)
Min Temperature 62 °F 53 °F 53 °F (2000)
Cooling Degree Days 14    
Growing Degree Days 28 (Base 50)    
Moisture  
Dew Point 48 °F    
Average Humidity 39    
Maximum Humidity 64    
Minimum Humidity 7    
Precipitation  
Precipitation 0.00 in 0.04 in - ()
Sea Level Pressure  
Sea Level Pressure 30.06 in    
Wind  
Wind Speed 5 mph ()    
Max Wind Speed 15 mph    
Max Gust Speed 25 mph    
Visibility 5.2 miles    
Events      
Averages and records for this station are not official NWS values.
T = Trace of Precipitation, MM = Missing Value Source: Averaged Metar Reports

Daily Weather History Graph

Daily Weather History Graph

Search for Another Location

Airport or City:

Trip Planner

Search our weather history database for the weather conditions in past years. The results will help you decide how hot, cold, wet, or windy it might be!

Date:

Astronomy

Oct. 16, 2011 Rise Set
Actual Time 6:35 AM WET 5:59 PM WET
Civil Twilight 6:11 AM WET 6:23 PM WET
Nautical Twilight 5:42 AM WET 6:52 PM WET
Astronomical Twilight 5:14 AM WET 7:20 PM WET
Moon 8:49 PM WET (10/16) 10:25 AM WET (10/16)
Length of Visible Light 12h 12m
Length of Day
11h 23m
Waning Gibbous, 83% of the Moon is Illuminated
Oct 16
Waning Gibbous
Oct 20
Last Quarter
Oct 26
New
Nov 2
First Quarter
Nov 10
Full

Hourly Weather History & Observations

Time (WET) Temp. Dew Point Humidity Pressure Visibility Wind Dir Wind Speed Gust Speed Precip Events Conditions
12:00 AM 69 °F 56 °F 53% 30.04 in 5 mi WSW 3.5 mph - -   Partly Cloudy
12:00 AM 69.8 °F 55.4 °F 60% 30.09 in 5.0 mi WSW 3.5 mph - N/A   Scattered Clouds
12:30 AM 69.8 °F 53.6 °F 56% 30.06 in 5.6 mi SW 4.6 mph - N/A   Scattered Clouds
1:00 AM 71.6 °F 55.4 °F 57% 30.06 in 5.6 mi SW 5.8 mph - N/A   Scattered Clouds
1:30 AM 66.2 °F 53.6 °F 64% 30.06 in 5.0 mi WSW 4.6 mph - N/A   Scattered Clouds
2:00 AM 66.2 °F 53.6 °F 64% 30.06 in 5.6 mi SSW 2.3 mph - N/A   Scattered Clouds
2:30 AM 66.2 °F 51.8 °F 60% 30.06 in 5.6 mi Variable 1.2 mph - N/A   Unknown
3:00 AM 66.2 °F 48.2 °F 52% 30.06 in - SSW 2.3 mph - N/A   Clear
3:30 AM 64.4 °F 50.0 °F 59% 30.06 in 5.6 mi Calm Calm - N/A   Unknown
4:00 AM 64.4 °F 50.0 °F 59% 30.06 in 5.6 mi ENE 2.3 mph - N/A   Unknown
4:30 AM 64.4 °F 48.2 °F 56% 30.06 in 5.6 mi Calm Calm - N/A   Unknown
5:00 AM 62.6 °F 46.4 °F 55% 30.06 in - East 3.5 mph - N/A   Clear
5:30 AM 64.4 °F 44.6 °F 49% 30.06 in 5.6 mi Variable 2.3 mph - N/A   Unknown
6:00 AM 63 °F 46 °F 42% 30.05 in 5 mi East 3.5 mph - -  
6:00 AM 62.6 °F 44.6 °F 52% 30.06 in 5.0 mi East 3.5 mph - N/A   Unknown
6:30 AM 62.6 °F 46.4 °F 55% 30.06 in 5.0 mi ESE 3.5 mph - N/A   Unknown
7:00 AM 62.6 °F 48.2 °F 59% 30.09 in 5.0 mi Calm Calm - N/A   Unknown
7:30 AM 68.0 °F 50.0 °F 52% 30.09 in 4.3 mi East 3.5 mph - N/A   Unknown
8:00 AM 71.6 °F 51.8 °F 50% 30.09 in 3.1 mi East 4.6 mph - N/A   Unknown
8:30 AM 73.4 °F 50.0 °F 44% 30.09 in 4.3 mi East 5.8 mph - N/A   Unknown
9:00 AM 77 °F 49 °F 27% 30.04 in 4 mi East 5.8 mph - -   Clear
9:00 AM 77.0 °F 50.0 °F 39% 30.09 in 4.3 mi East 5.8 mph - N/A   Unknown
9:30 AM 80.6 °F 46.4 °F 30% 30.09 in 5.0 mi East 5.8 mph - N/A   Unknown
10:00 AM 82.4 °F 48.2 °F 30% 30.09 in 5.0 mi ENE 5.8 mph - N/A   Unknown
10:30 AM 86.0 °F 48.2 °F 27% 30.09 in 5.0 mi ENE 5.8 mph - N/A   Unknown
11:00 AM 87.8 °F 50.0 °F 27% 30.09 in 5.0 mi NE 4.6 mph - N/A   Unknown
11:30 AM 89.6 °F 46.4 °F 22% 30.09 in 5.6 mi ENE 5.8 mph - N/A   Unknown
12:00 PM 92 °F 42 °F 10% 29.96 in 6 mi East 3.5 mph - -   Scattered Clouds
12:00 PM 91.4 °F 42.8 °F 18% 30.06 in 6.2 mi East 3.5 mph - N/A   Scattered Clouds
12:30 PM 95.0 °F 41.0 °F 15% 30.06 in 6.2 mi Variable 3.5 mph - N/A   Scattered Clouds
1:00 PM 95.0 °F 41.0 °F 15% 30.04 in 6.2 mi Variable 4.6 mph - N/A   Scattered Clouds
1:30 PM 93.2 °F 39.2 °F 15% 30.04 in 6.2 mi NNW 8.1 mph - N/A   Scattered Clouds
2:00 PM 93.2 °F 37.4 °F 14% 30.04 in 6.2 mi WNW 10.4 mph - N/A   Scattered Clouds
2:30 PM 95.0 °F 39.2 °F 14% 30.04 in 6.2 mi WNW 10.4 mph - N/A   Scattered Clouds
3:00 PM 94 °F 38 °F 7% 29.91 in 6 mi West 13.8 mph - -   Partly Cloudy
3:00 PM 95.0 °F 37.4 °F 13% 30.01 in 6.2 mi WNW 11.5 mph 25.3 mph N/A   Scattered Clouds
3:30 PM 95.0 °F 39.2 °F 14% 30.01 in 6.2 mi WNW 12.7 mph - N/A   Scattered Clouds
4:00 PM 91.4 °F 39.2 °F 16% 30.04 in 6.2 mi WNW 15.0 mph - N/A   Scattered Clouds
4:30 PM 89.6 °F 41.0 °F 18% 30.04 in 6.2 mi WNW 10.4 mph - N/A   Scattered Clouds
5:00 PM 89.6 °F 41.0 °F 18% 30.04 in 6.2 mi West 10.4 mph - N/A   Scattered Clouds
5:30 PM 87.8 °F 44.6 °F 22% 30.04 in 5.6 mi WNW 12.7 mph - N/A   Mostly Cloudy
6:00 PM 86.0 °F 41.0 °F 20% 30.06 in 5.0 mi WNW 11.5 mph - N/A   Mostly Cloudy
6:30 PM 84.2 °F 42.8 °F 23% 30.06 in 3.7 mi WNW 9.2 mph - N/A   Mostly Cloudy
7:00 PM 82.4 °F 50.0 °F 32% 30.06 in 5.0 mi WNW 6.9 mph - N/A   Mostly Cloudy
7:30 PM 80.6 °F 51.8 °F 37% 30.09 in 4.3 mi NW 6.9 mph - N/A   Mostly Cloudy
8:00 PM 77.0 °F 50.0 °F 39% 30.09 in 4.3 mi SW 8.1 mph - N/A   Scattered Clouds
8:30 PM 75.2 °F 55.4 °F 50% 30.12 in 5.0 mi SW 8.1 mph - N/A   Scattered Clouds
9:00 PM 74 °F 56 °F 43% 30.07 in 5 mi SW 8.1 mph - -   Scattered Clouds
9:00 PM 73.4 °F 55.4 °F 53% 30.12 in 5.0 mi SW 8.1 mph - N/A   Scattered Clouds
9:30 PM 75.2 °F 57.2 °F 53% 30.12 in 5.0 mi SSW 8.1 mph - N/A   Scattered Clouds
10:00 PM 73.4 °F 55.4 °F 53% 30.12 in 5.0 mi SW 5.8 mph - N/A   Scattered Clouds
10:30 PM 73.4 °F 55.4 °F 53% 30.12 in 4.3 mi SW 3.5 mph - N/A   Scattered Clouds
11:00 PM 69.8 °F 55.4 °F 60% 30.12 in 3.7 mi West 3.5 mph - N/A   Scattered Clouds
11:30 PM 69.8 °F 55.4 °F 60% 30.09 in 4.3 mi Variable 2.3 mph - N/A   Scattered Clouds